www.pogodaiklimat.ru

Погода и климат >> Архив погоды >> Япония >> Миякодзима


ПОГОДА в Миякодзиме

  • Прогноз погоды в Миякодзиме
  • Монитор погоды в Миякодзиме

АРХИВ ПОГОДЫ в Миякодзиме

Время (UTC), дата Ветер
(напр.,м/с)
 
Видим.   Явления Облачность Т
(С)
Тd
(С)
f
(%)
Тe
(С)
Тes
(С)
Комфортность P
(гПа)
Po
(гПа)
Тmin
(С)
Tmax
(С)
R
(мм)
R24
(мм)
S
(см)
22 16.01 С 9 н/о н/о +16.0 +14.7 92 +14 +14 1019.8 1014.8
23 16.01 С 9 н/о н/о +15.9 +14.8 93 +14 +14 1020.6 1015.6
00 17.01 С 8 5000 м слаб. ливневой дождь 10/10
[Cu Sc]
+16.2 +15.1 93 +14 +14 1020.9 1015.9 +15.7 12
01 17.01 СВ 9 н/о н/о +16.9 +14.4 85 +15 +15 1021.4 1016.4
02 17.01 С 7 н/о н/о +16.7 +15.9 95 +15 +15 1021.6 1016.6
03 17.01 С 8 5000 м слаб. ливневой дождь 10/10
[Cu Sc]
+16.8 +15.3 91 +15 +15 1021.0 1016.0
04 17.01 С 7 н/о н/о +16.3 +15.0 92 +15 +15 1020.8 1015.8
05 17.01 С 8 н/о н/о +16.3 +15.0 92 +15 +15 1020.4 1015.4
06 17.01 С 8 15 км в посл. час дождь {ливн. осадки} 9/9
[Cu Sc Ac As Cc]
+17.4 +13.9 80 +16 +16 1019.9 1015.0 5
07 17.01 С 7 н/о н/о +17.7 +13.6 77 +17 +17 1020.4 1015.5
08 17.01 С 7 н/о н/о +17.8 +12.7 72 +17 +17 1021.3 1016.4
09 17.01 С 7 20 км в посл. час дождь 9/9
[Cu Sc]
+17.6 +12.1 70 +17 +17 1021.8 1016.9
10 17.01 С 6 н/о н/о +17.4 +12.5 73 +17 +17 1022.7 1017.7
11 17.01 С 7 н/о н/о +17.2 +12.3 73 +16 +16 1023.4 1018.4
12 17.01 С 7 20 км в посл. час ливневой дождь 9/9
[Cu Sc]
+17.1 +11.2 68 +16 +16 1024.1 1019.1 +17.9 5
13 17.01 С 7 н/о н/о +16.6 +11.8 73 +15 +15 1024.6 1019.6
14 17.01 С 5 н/о н/о +16.8 +10.2 65 +16 +16 1024.8 1019.8
15 17.01 С 8 н/о н/о +16.4 +10.1 66 +15 +15 1024.7 1019.7
16 17.01 СВ 7 н/о н/о +16.3 +9.0 62 +15 +15 1024.7 1019.7
17 17.01 С 6 н/о н/о +16.0 +8.0 59 +15 +15 1024.8 1019.8
18 17.01 С 5 20 км {ливн. осадки} 9/9
[Cu Sc]
+15.9 +9.1 64 +15 +15 1024.6 1019.6 0.0
19 17.01 СВ 5 н/о н/о +16.3 +8.5 60 +15 +15 1024.4 1019.4
20 17.01 С 7 н/о н/о +16.0 +8.7 62 +15 +15 1024.2 1019.2
21 17.01 СВ 7 20 км 8/8
[Cu Sc]
+16.3 +7.5 56 +15 +15 1024.5 1019.5
22 17.01 СВ 7 н/о н/о +16.5 +8.2 58 +15 +15 1024.6 1019.6
23 17.01 СВ 5 н/о н/о +16.4 +9.4 63 +15 +15 1024.9 1019.9
00 18.01 СВ 6 25 км 9/9
[Cu Sc]
+16.9 +8.9 59 +16 +16 1025.4 1020.4 +15.7 0.0
01 18.01 СВ 6 н/о н/о +17.5 +8.9 57 +17 +17 1026.1 1021.1
02 18.01 СВ 7 н/о н/о +18.4 +7.8 50 +18 +18 1025.9 1021.0
03 18.01 СВ 4 20 км 9/9
[Cu Sc]
+18.0 +9.6 58 +18 +19 1025.5 1020.5
04 18.01 СВ 6 н/о н/о +19.4 +8.4 49 +20 +20 1024.4 1019.5
05 18.01 СВ 6 н/о н/о +18.7 +9.5 55 +19 +19 1023.5 1018.6
06 18.01 СВ 5 20 км 8/8
[Cu Sc]
+18.6 +9.7 56 +19 +19 1023.0 1018.1
07 18.01 СВ 6 н/о н/о +18.5 +9.3 55 +18 +18 1022.7 1017.8
08 18.01 СВ 5 н/о н/о +18.2 +9.0 55 +18 +18 1022.6 1017.7
09 18.01 СВ 5 15 км 9/9
[Cu Sc]
+18.3 +9.9 58 +18 +18 1022.7 1017.8
10 18.01 СВ 5 н/о н/о +18.0 +8.8 55 +18 +18 1023.2 1018.3
11 18.01 В 3 н/о н/о +18.1 +9.7 58 +18 +18 1023.4 1018.5
12 18.01 В 3 20 км 9/9
[Cu Sc]
+18.2 +10.3 60 +19 +19 1023.6 1018.7 +19.9
13 18.01 В 5 н/о н/о +18.1 +9.7 58 +18 +18 1023.5 1018.6
14 18.01 В 2 н/о н/о +17.8 +10.2 61 +18 +18 1023.4 1018.5
15 18.01 ЮВ 3 н/о н/о +17.4 +9.8 61 +18 +18 1023.5 1018.5
16 18.01 ЮВ 2 н/о н/о +17.8 +10.4 62 +18 +18 1023.0 1018.1
17 18.01 В 3 н/о н/о +18.3 +12.3 68 +19 +19 1023.1 1018.2
18 18.01 В 4 20 км 9/9
[Cu Sc]
+18.4 +11.5 64 +19 +19 1022.7 1017.8
19 18.01 В 3 н/о н/о +17.7 +10.8 64 +18 +18 1022.5 1017.6
20 18.01 ЮВ 2 н/о н/о +18.2 +10.6 61 +19 +19 1022.3 1017.4
21 18.01 В 2 20 км 9/9
[Cu Sc]
+18.3 +11.4 64 +19 +19 1022.1 1017.2
22 18.01 В 3 н/о н/о +18.0 +11.3 65 +18 +18 1022.4 1017.5
23 18.01 В 2 н/о н/о +17.8 +10.7 63 +18 +18 1022.7 1017.8
00 19.01 СВ 1 25 км 3/3
[Cu Sc]
+19.7 +11.5 59 +22 +24 комфорт 1023.1 1018.2 +17.2
01 19.01 С 2 н/о н/о +20.6 +10.4 52 +23 +23 комфорт 1023.4 1018.5
02 19.01 С 1 н/о н/о +20.9 +11.5 55 +24 +24 комфорт 1022.9 1018.0
03 19.01 СВ 2 25 км 9/9
[Cu Sc]
+21.1 +13.3 61 +23 +25 комфорт 1022.3 1017.4
04 19.01 В 4 н/о н/о +22.4 +14.3 60 +26 +26 жарко 1021.1 1016.3
05 19.01 В 4 н/о н/о +22.8 +13.9 57 +26 +26 жарко 1020.3 1015.5
06 19.01 ЮВ 3 25 км 8/8
[Cu Sc Ac trans]
+22.7 +13.8 57 +26 +27 жарко 1019.7 1014.9
07 19.01 ЮВ 3 н/о н/о +22.5 +12.7 54 +25 +25 комфорт 1019.3 1014.5
08 19.01 В 4 н/о н/о +21.9 +12.5 55 +24 +24 комфорт 1019.6 1014.7
09 19.01 В 2 25 км 3/1
[Cu Sc Ac trans]
+21.2 +13.4 61 +24 +24 комфорт 1019.9 1015.0
10 19.01 В 2 н/о н/о +20.3 +13.3 64 +23 +23 комфорт 1019.9 1015.0
11 19.01 В 2 н/о н/о +20.2 +12.9 63 +23 +23 комфорт 1020.2 1015.3
12 19.01 ЮВ 3 25 км 1/1
[Cu hum]
+19.3 +13.5 69 +21 +21 комфорт 1020.4 1015.5 +23.8
13 19.01 ЮВ 2 н/о н/о +19.3 +14.4 73 +21 +21 комфорт 1020.6 1015.7
14 19.01 ЮВ 3 н/о н/о +19.0 +14.7 76 +21 +21 комфорт 1020.2 1015.3
15 19.01 ЮВ 3 н/о н/о +19.2 +14.7 75 +21 +21 комфорт 1020.0 1015.1
16 19.01 ЮВ 3 н/о н/о +19.7 +15.4 76 +22 +22 комфорт 1019.6 1014.7
17 19.01 ЮВ 3 н/о н/о +19.6 +15.9 79 +22 +22 комфорт 1019.0 1014.1
18 19.01 ЮВ 2 25 км 9/1
[Cu hum Ac trans]
+20.2 +16.1 77 +24 +24 комфорт 1019.0 1014.1
19 19.01 ЮВ 2 н/о н/о +20.1 +16.4 79 +23 +23 комфорт 1019.0 1014.1
20 19.01 Ю 2 н/о н/о +20.5 +16.5 78 +24 +24 комфорт 1018.8 1013.9
21 19.01 Ю 3 20 км 9/1
[Cu hum Ac As]
+21.0 +16.8 77 +25 +25 комфорт 1018.6 1013.7
22 19.01 Ю 2 н/о н/о +21.0 +16.8 77 +25 +25 комфорт 1019.0 1014.1
23 19.01 Ю 3 н/о н/о +20.9 +16.9 78 +25 +25 комфорт 1019.3 1014.4
00 20.01 ЮЗ 1 25 км 9/3
[Cu med, cong Ac trans]
+22.1 +17.7 76 +27 +28 душно 1019.9 1015.1 +18.8
01 20.01 ЮЗ 3 н/о н/о +23.1 +17.6 71 +28 +28 душно 1020.1 1015.3
02 20.01 З 2 н/о н/о +23.9 +17.2 66 +28 +28 душно 1020.0 1015.2
03 20.01 С 6 20 км 9/5
[Cu Sc Ac As]
+21.3 +18.7 85 +26 +27 душно 1019.8 1014.9
04 20.01 С 6 н/о н/о +21.6 +18.2 81 +26 +26 душно 1019.3 1014.4
05 20.01 С 6 н/о н/о +20.6 +18.0 85 +24 +24 комфорт 1018.8 1013.9
06 20.01 С 5 10 км слаб. ливневой дождь 10/9
[Cu Sc Ac As]
+20.2 +17.0 82 +23 +23 комфорт 1018.6 1013.7 0.0
07 20.01 С 7 н/о н/о +20.0 +16.1 78 +22 +22 комфорт 1018.5 1013.6
08 20.01 С 7 н/о н/о +19.9 +15.6 76 +22 +22 комфорт 1018.8 1013.9
09 20.01 С 7 8000 м в посл. час ливневой дождь 10/10
[Cu Sc]
+19.6 +14.9 74 +21 +21 комфорт 1019.4 1014.5
10 20.01 С 7 н/о н/о +19.3 +14.6 74 +20 +20 1019.8 1014.9
11 20.01 С 7 н/о н/о +19.2 +14.7 75 +20 +20 1020.3 1015.4
12 20.01 С 7 10 км {ливн. осадки} 10/10
[Cu Sc]
+19.2 +14.3 73 +20 +20 1020.6 1015.7 +24.4 0.0
13 20.01 С 6 н/о н/о +19.1 +14.2 73 +20 +20 1020.7 1015.8
14 20.01 С 7 н/о н/о +18.9 +14.6 76 +19 +19 1020.9 1016.0
15 20.01 С 7 н/о н/о +18.7 +14.2 75 +19 +19 1021.1 1016.2
16 20.01 С 6 н/о н/о +18.5 +14.2 76 +19 +19 1021.2 1016.3
17 20.01 С 7 н/о н/о +18.5 +13.8 74 +18 +18 1020.9 1016.0
18 20.01 С 8 10 км слаб. ливневой дождь 10/10
[Cu Sc]
+17.9 +14.6 81 +17 +17 1020.7 1015.8 0.0
19 20.01 С 7 н/о н/о +18.0 +13.7 76 +17 +17 1020.3 1015.4
20 20.01 С 8 н/о н/о +17.8 +13.5 76 +17 +17 1020.0 1015.1
21 20.01 С 7 10 км в посл. час дождь {ливн. осадки} 10/10
[Cu Sc]
+17.9 +13.0 73 +17 +17 1020.2 1015.3
22 20.01 С 8 н/о н/о +17.7 +13.0 74 +17 +17 1021.0 1016.1
23 20.01 С 8 н/о н/о +17.5 +13.0 75 +16 +16 1021.4 1016.5
00 21.01 СВ 7 10 км слаб. дождь 10/9
[Cu Sc Ac As]
+17.5 +12.8 74 +17 +17 1021.5 1016.6 +17.4 0.0
01 21.01 С 6 н/о н/о +17.0 +13.5 80 +16 +16 1022.2 1017.2
02 21.01 С 7 н/о н/о +17.3 +13.2 77 +16 +16 1021.9 1017.0
03 21.01 С 8 10 км слаб. дождь 10/9
[Cu Sc Ac As]
+17.9 +13.6 76 +17 +17 1021.1 1016.2
04 21.01 С 7 н/о н/о +18.0 +13.1 73 +17 +17 1020.5 1015.6
05 21.01 С 6 н/о н/о +18.2 +12.9 71 +18 +18 1019.9 1015.0
06 21.01 С 7 15 км {дождь} 9/8
[Cu Sc Ac As]
+18.3 +12.3 68 +18 +18 1019.4 1014.5 0.0
07 21.01 С 6 н/о н/о +18.3 +11.9 66 +18 +18 1019.4 1014.5
08 21.01 С 7 н/о н/о +17.7 +12.4 71 +17 +17 1019.5 1014.6
09 21.01 С 6 15 км {ливн. осадки} 10/9
[Cu Sc Ac As]
+17.7 +12.0 69 +17 +17 1020.1 1015.2
10 21.01 С 4 н/о н/о +17.7 +11.5 67 +17 +17 1020.8 1015.9
11 21.01 С 5 н/о н/о +17.6 +11.6 68 +17 +17 1021.3 1016.4
12 21.01 С 6 15 км в посл. час ливневой дождь 10/10
[Cu Sc]
+17.7 +11.5 67 +17 +17 1021.6 1016.7 +18.5 0.0
13 21.01 С 6 н/о н/о +17.3 +11.8 70 +17 +17 1021.7 1016.8
14 21.01 С 5 н/о н/о +17.6 +11.6 68 +17 +17 1021.8 1016.9
15 21.01 С 6 н/о н/о +16.9 +12.0 73 +16 +16 1021.6 1016.6
16 21.01 С 6 н/о н/о +17.2 +11.7 70 +16 +16 1021.4 1016.5
18 21.01 С 5 15 км {ливн. осадки} 10/10
[Cu Sc]
+17.1 +11.6 70 +17 +17 1020.5 1015.6 0.0
19 21.01 С 5 н/о н/о +16.8 +11.3 70 +16 +16 1019.7 1014.8
20 21.01 СВ 6 н/о н/о +16.9 +11.6 71 +16 +16 1018.9 1014.0
21 21.01 С 5 20 км 9/9
[Cu Sc Ac As]
+17.0 +11.5 70 +16 +16 1020.1 1015.2
23 21.01 С 4 н/о н/о +17.1 +10.7 66 +17 +17 1020.1 1015.2
22 21.01 С 4 н/о н/о +16.8 +10.9 68 +16 +16 1020.0 1015.1
00 22.01 СВ 3 15 км 9/9
[Cu Sc]
+17.4 +11.2 67 +18 +18 1020.4 1015.5 +16.4 0.0
01 22.01 СВ 5 н/о н/о +17.6 +12.1 70 +17 +17 1020.5 1015.6
02 22.01 С 5 н/о н/о +17.5 +11.5 68 +17 +17 1020.6 1015.7
03 22.01 С 5 15 км {ливн. осадки} 9/9
[Cu Sc]
+18.4 +10.3 59 +18 +19 1020.5 1015.6
05 22.01 С 6 н/о н/о +17.6 +12.3 71 +17 +17 1019.1 1014.2
04 22.01 С 6 н/о н/о +18.2 +11.3 64 +18 +18 1019.4 1014.5
06 22.01 С 6 15 км {ливн. осадки} 9/9
[Cu Sc]
+17.3 +11.4 68 +17 +17 1019.2 1014.3 0.0
07 22.01 С 6 н/о н/о +17.0 +11.3 69 +16 +16 1019.3 1014.4
08 22.01 С 7 н/о н/о +15.9 +11.7 76 +14 +14 1019.9 1014.9
09 22.01 С 7 10 км в посл. час ливневой дождь 10/10
[Cu Sc]
+16.2 +10.7 70 +15 +15 1020.3 1015.3
11 22.01 С 6 н/о н/о +16.4 +9.8 65 +15 +15 1021.4 1016.4
10 22.01 С 6 н/о н/о +16.5 +10.6 68 +15 +15 1020.8 1015.8
12 22.01 С 6 10 км {ливн. осадки} 10/10
[Cu Sc]
+16.3 +9.3 63 +15 +15 1021.6 1016.6 +18.9 0.0
13 22.01 С 6 н/о н/о +16.2 +7.9 58 +15 +15 1021.8 1016.8
14 22.01 С 6 н/о н/о +16.1 +7.3 56 +15 +15 1021.3 1016.3
15 22.01 С 6 н/о н/о +15.9 +7.2 56 +15 +15 1021.8 1016.8
16 22.01 С 5 н/о н/о +15.7 +7.0 56 +15 +15 1021.7 1016.7
18 22.01 С 5 15 км 4/4
[Cu hum]
+15.0 +6.6 57 +14 +14 1020.7 1015.7
19 22.01 С 5 н/о н/о +15.0 +6.1 55 +14 +14 1020.3 1015.3
20 22.01 С 4 н/о н/о +14.7 +6.3 57 +14 +14 1020.4 1015.4
21 22.01 С 5 20 км 3/3
[Cu hum]
+14.8 +6.6 58 +14 +14 1020.4 1015.4
22 22.01 СВ 4 н/о н/о +14.9 +6.7 58 +14 +14 1020.9 1015.9
23 22.01 С 4 н/о н/о +14.8 +6.6 58 +14 +14 1021.2 1016.2
00 23.01 СВ 5 20 км 3/3
[Sc diur, vesp]
+16.2 +7.2 55 +15 +16 1021.8 1016.8 +14.5
01 23.01 С 5 н/о н/о +17.1 +7.2 52 +17 +17 1022.4 1017.4
02 23.01 С 4 н/о н/о +17.9 +7.4 50 +18 +18 1022.2 1017.3
03 23.01 СВ 5 15 км 8/8
[Cu Sc]
+18.1 +8.9 55 +18 +19 1022.1 1017.2
04 23.01 С 5 н/о н/о +19.0 +8.7 51 +19 +19 1021.5 1016.6
05 23.01 СВ 5 н/о н/о +18.8 +8.2 50 +19 +19 1020.4 1015.5
06 23.01 С 5 15 км 4/4
[Cu hum]
+18.5 +7.6 49 +19 +21 1020.2 1015.3
07 23.01 С 4 н/о н/о +18.4 +7.8 50 +19 +19 1020.1 1015.2
08 23.01 СВ 4 н/о н/о +17.7 +7.5 51 +18 +18 1020.2 1015.3
09 23.01 С 3 15 км 3/3
[Cu Sc]
+17.5 +6.7 49 +18 +18 1020.6 1015.7
10 23.01 С 4 н/о н/о +17.0 +8.2 56 +17 +17 1021.3 1016.3
11 23.01 С 3 н/о н/о +16.9 +7.0 52 +17 +17 1021.6 1016.6
12 23.01 СВ 3 20 км 3/3
[Cu Sc]
+16.4 +7.9 57 +16 +16 1021.6 1016.6 +19.3
13 23.01 СВ 4 н/о н/о +17.2 +7.3 52 +17 +17 1021.4 1016.5
14 23.01 СВ 3 н/о н/о +16.8 +8.0 56 +17 +17 1021.8 1016.8
16 23.01 С 4 н/о н/о +16.6 +7.8 56 +16 +16 1021.5 1016.5
17 23.01 С 3 н/о н/о +16.0 +8.0 59 +16 +16 1021.4 1016.4
18 23.01 С 3 20 км 1/1
[Cu hum]
+16.2 +7.9 58 +16 +16 1021.0 1016.0
19 23.01 СВ 3 н/о н/о +15.4 +7.7 60 +15 +15 1020.6 1015.6
20 23.01 С 3 н/о н/о +16.2 +9.2 63 +16 +16 1020.5 1015.5
21 23.01 С 3 20 км 1/1
[Cu hum]
+15.9 +8.9 63 +15 +15 1020.6 1015.6
22 23.01 СВ 3 н/о н/о +15.7 +8.7 63 +15 +15 1021.3 1016.3

 

Местоположение метеостанции Миякодзима (Япония): широта 24.80 долгота 125.28 высота над уровнем моря 41 м.

В архиве по умолчанию представлена погода в Миякодзиме за последнюю неделю. Архивные данные за месяц целиком и за предыдущие месяцы, начиная с января 2011 года, Вы можете получить, выбрав интересующий диапазон дат из раскрывающегося списка и нажав кнопку "Ввод!".


*Определитесь, кто Вы:
робот инопланетянин человек

Внимание! Время в таблицах - всемирное. Для получения местного времени необходимо прибавить поправку, которая равна 9 ч.

Смотрите также архив погоды в соседних городах и на ближайших метеорологических станциях:

Погода в Игисаки (Япония) (125 км)
Погода на Ириомоте (Япония) (159 км)
Погода в Кумедзиме (Япония) (229 км)
Погода на Йонагуни (Япония) (232 км)
Погода в Нахе (Япония) (287 км)
Погода в Наго (Япония) (335 км)
Погода на Пенгджия (Тайвань, Китай) (337 км)
Погода в Тайбэе (Тайвань, Китай) (381 км)
Погода на Окиноэрабу (Япония) (449 км)
Погода в Тайчжуне (Тайвань, Китай) (471 км)

Пояснения к столбцам:

Ветер - указаны скорость ветра в м/с - средняя за 10 мин, порывы в срок и между сроками (в фигурных скобках) и направление, откуда дует ветер: С - северный, СВ - северо-восточный, В - восточный, ЮВ - юго-восточный, Ю - южный, ЮЗ - юго-западный, З - западный, СЗ - северо-западный.
Видимость - горизонтальная дальность видимости в метрах или километрах. При видимости от 1 до 10 км при отсутствии осадков обычно наблюдается дымка, при ухудшении видимости до 1 км и менее - туман. В сухую погоду видимость может ухудшаться дымом, пылью или мглою.
Явления - указаны атмосферные явления, наблюдавшиеся в срок или в последний час перед сроком; фигурными скобками обозначены явления, наблюдавшиеся между сроками (за 1-3 часа до срока); квадратными скобками обозначены град или гололедные отложения с указанием их диаметра в мм.
Облачность - указаны через наклонную черту общая и нижняя облачность в баллах и высота нижней границы облаков в метрах; квадратными скобками обозначены формы облаков: Ci - перистые, Cs - перисто-слоистые, Cc - перисто-кучевые, Ac - высококучевые, As - высокослоистые, Sc - слоисто-кучевые, Ns - слоисто-дождевые, Cu - кучевые, Cb - кучево-дождевые. Подробнее классификацию облаков см. в Атласе облаков (PDF).
T - Температура воздуха - температура, измеренная на высоте 2 м над землей.
Td - Температура точки росы - температура, при понижении до которой содержащийся в воздухе водяной пар достигнет насыщения.
f - Относительная влажность воздуха - влажноcть воздуха, измеренная на высоте 2 м над землей.
Te - Эффективная температура - температура, которую ощущает одетый по сезону человек в тени. Характеристика душности погоды. При расчете учитывается влияние влажности воздуха и скорости ветра на теплоощущения человека.
Tes - Эффективная температура на солнце - температура, которую ощущает человек, с поправкой на солнечный нагрев. Характеристика знойности погоды. Зависит от высоты солнца над горизонтом, облачности и скорости ветра. Ночью, в пасмурную погоду, а также при ветре 12 м/с и более поправка равна нулю.
P - Атмосферное давление - приведенное к уровню моря атмосферное давление.
Po - Атмосферное давление - измеренное на уровне метеостанции атмосферное давление.
Tmin - Минимальная температура - минимум температуры воздуха на высоте 2 м над землей.
Tmax - Максимальная температура - максимум температуры воздуха на высоте 2 м над землей.
R - Количество осадков - Количество выпавших осадков за период времени, мм. При наведении курсора мыши на число - период времени, за который выпало указанное количество осадков.
R24 - Количество осадков - Количество выпавших осадков за 24 часа, мм.
S - Снежный покров - Высота снежного покрова, см. При наведении курсора мыши на число - состояние снежного покрова и степень покрытия местности в баллах.